Time,TemperatureF,DewpointF,PressureIn,WindDirection,WindDirectionDegrees,WindSpeedMPH,WindSpeedGustMPH,Humidity,HourlyPrecipIn,Conditions,Clouds,dailyrainin,SolarRadiationWatts/m^2,SoftwareType,DateUTC
2013-09-11 00:00:00,73.7,68.2,30.01,South,178,3.0,3.0,83,0.00,,,0.00,0,Wunderground v.1.15,2013-09-11 05:00:00,
2013-09-11 00:10:00,73.3,68.2,30.01,South,178,2.0,2.0,84,0.00,,,0.00,0,Wunderground v.1.15,2013-09-11 05:10:00,
2013-09-11 00:15:00,73.1,68.3,30.00,South,178,2.0,3.0,85,0.00,,,0.00,0,Wunderground v.1.15,2013-09-11 05:15:00,
2013-09-11 00:20:00,72.9,68.1,30.00,South,178,2.0,3.0,85,0.00,,,0.00,0,Wunderground v.1.15,2013-09-11 05:20:00,
2013-09-11 00:25:00,72.7,67.9,30.00,South,178,2.0,3.0,85,0.00,,,0.00,0,Wunderground v.1.15,2013-09-11 05:25:00,
2013-09-11 00:30:00,72.5,68.1,30.01,South,178,2.0,2.0,86,0.00,,,0.00,0,Wunderground v.1.15,2013-09-11 05:30:00,
2013-09-11 00:35:00,72.2,67.8,30.00,South,178,1.0,2.0,86,0.00,,,0.00,0,Wunderground v.1.15,2013-09-11 05:35:00,
2013-09-11 00:40:00,72.0,67.6,30.00,South,178,1.0,1.0,86,0.00,,,0.00,0,Wunderground v.1.15,2013-09-11 05:40:00,
2013-09-11 00:50:00,71.5,67.4,30.00,South,178,2.0,2.0,87,0.00,,,0.00,0,Wunderground v.1.15,2013-09-11 05:50:00,
2013-09-11 00:55:00,71.2,67.5,30.00,South,178,1.0,2.0,88,0.00,,,0.00,0,Wunderground v.1.15,2013-09-11 05:55:00,
2013-09-11 01:00:00,70.9,67.2,30.00,South,178,1.0,1.0,88,0.00,,,0.00,0,Wunderground v.1.15,2013-09-11 06:00:00,
2013-09-11 01:05:00,70.8,67.1,30.00,South,178,1.0,2.0,88,0.00,,,0.00,0,Wunderground v.1.15,2013-09-11 06:05:00,
2013-09-11 01:10:00,70.7,67.3,30.00,South,178,2.0,2.0,89,0.00,,,0.00,0,Wunderground v.1.15,2013-09-11 06:10:00,
2013-09-11 01:15:00,70.6,67.2,30.00,South,178,1.0,2.0,89,0.00,,,0.00,0,Wunderground v.1.15,2013-09-11 06:15:00,
2013-09-11 01:25:00,70.4,67.0,30.00,South,178,1.0,1.0,89,0.00,,,0.00,0,Wunderground v.1.15,2013-09-11 06:25:00,
2013-09-11 01:30:00,70.3,66.9,30.00,South,178,1.0,1.0,89,0.00,,,0.00,0,Wunderground v.1.15,2013-09-11 06:30:00,
2013-09-11 01:35:00,70.1,66.7,30.00,South,178,1.0,1.0,89,0.00,,,0.00,0,Wunderground v.1.15,2013-09-11 06:35:00,
2013-09-11 01:40:00,70.1,66.7,30.00,South,178,0.0,1.0,89,0.00,,,0.00,0,Wunderground v.1.15,2013-09-11 06:40:00,
2013-09-11 01:45:00,70.0,66.6,30.00,South,178,1.0,2.0,89,0.00,,,0.00,0,Wunderground v.1.15,2013-09-11 06:45:00,
2013-09-11 01:55:00,69.9,66.5,30.00,South,178,1.0,2.0,89,0.00,,,0.00,0,Wunderground v.1.15,2013-09-11 06:55:00,
2013-09-11 02:00:00,69.9,66.5,30.00,South,178,1.0,2.0,89,0.00,,,0.00,0,Wunderground v.1.15,2013-09-11 07:00:00,
2013-09-11 02:05:00,69.9,66.2,30.00,South,178,1.0,2.0,88,0.00,,,0.00,0,Wunderground v.1.15,2013-09-11 07:05:00,
2013-09-11 02:10:00,69.9,66.5,30.00,South,178,1.0,2.0,89,0.00,,,0.00,0,Wunderground v.1.15,2013-09-11 07:10:00,
2013-09-11 02:15:00,69.8,66.4,30.00,South,178,1.0,3.0,89,0.00,,,0.00,0,Wunderground v.1.15,2013-09-11 07:15:00,
2013-09-11 02:20:00,69.6,66.2,30.00,South,178,2.0,2.0,89,0.00,,,0.00,0,Wunderground v.1.15,2013-09-11 07:20:00,
2013-09-11 02:30:00,69.4,66.0,30.00,South,178,2.0,2.0,89,0.00,,,0.00,0,Wunderground v.1.15,2013-09-11 07:30:00,
2013-09-11 02:35:00,69.2,65.8,30.00,South,178,2.0,2.0,89,0.00,,,0.00,0,Wunderground v.1.15,2013-09-11 07:35:00,
2013-09-11 02:40:00,69.1,65.7,30.00,South,178,2.0,2.0,89,0.00,,,0.00,0,Wunderground v.1.15,2013-09-11 07:40:00,
2013-09-11 02:45:00,69.0,65.9,30.01,South,178,2.0,3.0,90,0.00,,,0.00,0,Wunderground v.1.15,2013-09-11 07:45:00,
2013-09-11 02:50:00,68.9,65.8,30.01,South,178,2.0,2.0,90,0.00,,,0.00,0,Wunderground v.1.15,2013-09-11 07:50:00,
2013-09-11 03:00:00,68.7,65.6,30.01,South,178,1.0,2.0,90,0.00,,,0.00,0,Wunderground v.1.15,2013-09-11 08:00:00,
2013-09-11 03:05:00,68.6,65.5,30.01,South,178,1.0,2.0,90,0.00,,,0.00,0,Wunderground v.1.15,2013-09-11 08:05:00,
2013-09-11 03:10:00,68.6,65.5,30.01,South,178,2.0,2.0,90,0.00,,,0.00,0,Wunderground v.1.15,2013-09-11 08:10:00,
2013-09-11 03:15:00,68.5,65.4,30.01,South,178,2.0,2.0,90,0.00,,,0.00,0,Wunderground v.1.15,2013-09-11 08:15:00,
2013-09-11 03:20:00,68.4,65.4,30.01,South,178,2.0,2.0,90,0.00,,,0.00,0,Wunderground v.1.15,2013-09-11 08:20:00,
2013-09-11 03:25:00,68.3,65.3,30.02,South,178,2.0,3.0,90,0.00,,,0.00,0,Wunderground v.1.15,2013-09-11 08:25:00,
2013-09-11 03:35:00,68.3,65.3,30.02,South,178,3.0,3.0,90,0.00,,,0.00,0,Wunderground v.1.15,2013-09-11 08:35:00,
2013-09-11 03:40:00,68.3,65.6,30.02,South,178,3.0,3.0,91,0.00,,,0.00,0,Wunderground v.1.15,2013-09-11 08:40:00,
2013-09-11 03:45:00,68.3,65.3,30.02,South,178,2.0,3.0,90,0.00,,,0.00,0,Wunderground v.1.15,2013-09-11 08:45:00,
2013-09-11 03:50:00,68.2,65.5,30.02,South,178,2.0,2.0,91,0.00,,,0.00,0,Wunderground v.1.15,2013-09-11 08:50:00,
2013-09-11 03:55:00,68.1,65.4,30.02,South,178,2.0,2.0,91,0.00,,,0.00,0,Wunderground v.1.15,2013-09-11 08:55:00,
2013-09-11 04:05:00,68.0,65.3,30.01,South,178,2.0,2.0,91,0.00,,,0.00,0,Wunderground v.1.15,2013-09-11 09:05:00,
2013-09-11 04:10:00,68.0,65.3,30.01,South,178,2.0,3.0,91,0.00,,,0.00,0,Wunderground v.1.15,2013-09-11 09:10:00,
2013-09-11 04:15:00,68.0,65.3,30.01,South,178,1.0,3.0,91,0.00,,,0.00,0,Wunderground v.1.15,2013-09-11 09:15:00,
2013-09-11 04:20:00,68.0,65.3,30.01,South,178,2.0,3.0,91,0.00,,,0.00,0,Wunderground v.1.15,2013-09-11 09:20:00,
2013-09-11 04:25:00,68.0,65.3,30.01,South,178,2.0,3.0,91,0.00,,,0.00,0,Wunderground v.1.15,2013-09-11 09:25:00,
2013-09-11 04:30:00,68.0,65.3,30.01,South,178,2.0,2.0,91,0.00,,,0.00,0,Wunderground v.1.15,2013-09-11 09:30:00,
2013-09-11 04:40:00,68.0,65.0,30.01,South,178,2.0,2.0,90,0.00,,,0.00,0,Wunderground v.1.15,2013-09-11 09:40:00,
2013-09-11 04:45:00,68.0,65.0,30.02,South,178,2.0,2.0,90,0.00,,,0.00,0,Wunderground v.1.15,2013-09-11 09:45:00,
2013-09-11 04:50:00,68.0,65.0,30.01,South,178,2.0,2.0,90,0.00,,,0.00,0,Wunderground v.1.15,2013-09-11 09:50:00,
2013-09-11 04:55:00,68.0,65.0,30.02,South,178,1.0,2.0,90,0.00,,,0.00,0,Wunderground v.1.15,2013-09-11 09:55:00,
2013-09-11 05:00:00,68.0,65.0,30.02,South,178,1.0,1.0,90,0.00,,,0.00,0,Wunderground v.1.15,2013-09-11 10:00:00,
2013-09-11 05:05:00,67.9,64.9,30.02,South,178,1.0,2.0,90,0.00,,,0.00,0,Wunderground v.1.15,2013-09-11 10:05:00,
2013-09-11 05:10:00,67.9,64.9,30.02,South,178,1.0,2.0,90,0.00,,,0.00,0,Wunderground v.1.15,2013-09-11 10:10:00,
2013-09-11 05:15:00,67.8,64.8,30.02,South,178,2.0,2.0,90,0.00,,,0.00,0,Wunderground v.1.15,2013-09-11 10:15:00,
2013-09-11 05:20:00,67.7,65.0,30.02,South,178,2.0,2.0,91,0.00,,,0.00,0,Wunderground v.1.15,2013-09-11 10:20:00,
2013-09-11 05:25:00,67.6,64.9,30.02,South,178,2.0,2.0,91,0.00,,,0.00,0,Wunderground v.1.15,2013-09-11 10:25:00,
2013-09-11 05:30:00,67.5,64.8,30.02,South,178,1.0,2.0,91,0.00,,,0.00,0,Wunderground v.1.15,2013-09-11 10:30:00,
2013-09-11 05:35:00,67.5,64.8,30.03,South,178,1.0,2.0,91,0.00,,,0.00,0,Wunderground v.1.15,2013-09-11 10:35:00,
2013-09-11 05:45:00,67.7,65.0,30.03,South,178,2.0,3.0,91,0.00,,,0.00,0,Wunderground v.1.15,2013-09-11 10:45:00,
2013-09-11 05:50:00,67.9,65.2,30.03,South,178,2.0,2.0,91,0.00,,,0.00,0,Wunderground v.1.15,2013-09-11 10:50:00,
2013-09-11 05:55:00,68.0,65.3,30.03,South,178,2.0,2.0,91,0.00,,,0.00,0,Wunderground v.1.15,2013-09-11 10:55:00,
2013-09-11 06:00:00,67.9,65.2,30.03,South,178,2.0,2.0,91,0.00,,,0.00,0,Wunderground v.1.15,2013-09-11 11:00:00,
2013-09-11 06:05:00,67.9,65.2,30.03,South,178,2.0,2.0,91,0.00,,,0.00,0,Wunderground v.1.15,2013-09-11 11:05:00,
2013-09-11 06:15:00,67.9,65.2,30.03,South,178,3.0,3.0,91,0.00,,,0.00,0,Wunderground v.1.15,2013-09-11 11:15:00,
2013-09-11 06:20:00,67.9,65.2,30.04,South,178,2.0,2.0,91,0.00,,,0.00,0,Wunderground v.1.15,2013-09-11 11:20:00,
2013-09-11 06:25:00,67.9,65.2,30.04,South,178,3.0,3.0,91,0.00,,,0.00,0,Wunderground v.1.15,2013-09-11 11:25:00,
2013-09-11 06:30:00,67.8,65.1,30.04,South,178,2.0,2.0,91,0.00,,,0.00,0,Wunderground v.1.15,2013-09-11 11:30:00,
2013-09-11 06:35:00,67.8,65.1,30.04,South,178,2.0,2.0,91,0.00,,,0.00,0,Wunderground v.1.15,2013-09-11 11:35:00,
2013-09-11 06:40:00,67.7,65.0,30.04,South,178,1.0,1.0,91,0.00,,,0.00,5,Wunderground v.1.15,2013-09-11 11:40:00,
2013-09-11 06:50:00,67.6,64.9,30.05,South,178,1.0,2.0,91,0.00,,,0.00,11,Wunderground v.1.15,2013-09-11 11:50:00,
2013-09-11 06:55:00,67.5,64.8,30.05,South,178,0.0,2.0,91,0.00,,,0.00,12,Wunderground v.1.15,2013-09-11 11:55:00,
2013-09-11 07:00:00,67.6,64.9,30.05,South,178,0.0,1.0,91,0.00,,,0.00,14,Wunderground v.1.15,2013-09-11 12:00:00,
2013-09-11 07:05:00,67.5,64.8,30.05,South,178,0.0,1.0,91,0.00,,,0.00,18,Wunderground v.1.15,2013-09-11 12:05:00,
2013-09-11 07:10:00,67.5,64.8,30.05,South,178,1.0,1.0,91,0.00,,,0.00,21,Wunderground v.1.15,2013-09-11 12:10:00,
2013-09-11 07:20:00,67.5,64.8,30.05,South,178,2.0,2.0,91,0.00,,,0.00,49,Wunderground v.1.15,2013-09-11 12:20:00,
2013-09-11 07:25:00,67.7,65.3,30.05,South,178,2.0,3.0,92,0.00,,,0.00,65,Wunderground v.1.15,2013-09-11 12:25:00,
2013-09-11 07:30:00,67.9,65.5,30.05,South,178,2.0,2.0,92,0.00,,,0.00,79,Wunderground v.1.15,2013-09-11 12:30:00,
2013-09-11 07:35:00,68.2,65.8,30.05,South,178,2.0,4.0,92,0.00,,,0.00,95,Wunderground v.1.15,2013-09-11 12:35:00,
2013-09-11 07:40:00,68.5,66.1,30.05,South,178,2.0,2.0,92,0.00,,,0.00,111,Wunderground v.1.15,2013-09-11 12:40:00,
2013-09-11 07:45:00,68.9,66.5,30.05,South,178,3.0,3.0,92,0.00,,,0.00,127,Wunderground v.1.15,2013-09-11 12:45:00,
2013-09-11 07:55:00,69.8,67.1,30.05,South,178,2.0,4.0,91,0.00,,,0.00,162,Wunderground v.1.15,2013-09-11 12:55:00,
2013-09-11 08:00:00,70.3,67.5,30.05,South,178,3.0,4.0,91,0.00,,,0.00,176,Wunderground v.1.15,2013-09-11 13:00:00,
2013-09-11 08:05:00,70.8,67.7,30.05,South,178,3.0,4.0,90,0.00,,,0.00,193,Wunderground v.1.15,2013-09-11 13:05:00,
2013-09-11 08:10:00,71.3,68.2,30.04,South,178,3.0,3.0,90,0.00,,,0.00,207,Wunderground v.1.15,2013-09-11 13:10:00,
2013-09-11 08:15:00,71.9,68.2,30.04,South,178,3.0,3.0,88,0.00,,,0.00,218,Wunderground v.1.15,2013-09-11 13:15:00,
2013-09-11 08:25:00,73.1,68.3,30.05,South,183,4.0,4.0,85,0.00,,,0.00,253,Wunderground v.1.15,2013-09-11 13:25:00,
2013-09-11 08:30:00,73.6,68.5,30.05,South,185,5.0,5.0,84,0.00,,,0.00,267,Wunderground v.1.15,2013-09-11 13:30:00,
2013-09-11 08:35:00,74.2,69.1,30.06,South,187,4.0,5.0,84,0.00,,,0.00,283,Wunderground v.1.15,2013-09-11 13:35:00,
2013-09-11 08:40:00,74.6,69.4,30.06,SSW,200,4.0,4.0,84,0.00,,,0.00,297,Wunderground v.1.15,2013-09-11 13:40:00,
2013-09-11 08:45:00,75.1,69.6,30.06,SSW,202,4.0,4.0,83,0.00,,,0.00,308,Wunderground v.1.15,2013-09-11 13:45:00,
2013-09-11 08:50:00,75.5,69.3,30.06,West,259,5.0,6.0,81,0.00,,,0.00,330,Wunderground v.1.15,2013-09-11 13:50:00,
2013-09-11 09:00:00,76.5,69.5,30.06,WSW,242,5.0,5.0,79,0.00,,,0.00,362,Wunderground v.1.15,2013-09-11 14:00:00,
2013-09-11 09:05:00,76.9,69.5,30.06,WSW,242,6.0,6.0,78,0.00,,,0.00,381,Wunderground v.1.15,2013-09-11 14:05:00,
2013-09-11 09:10:00,77.3,69.5,30.06,WSW,252,6.0,6.0,77,0.00,,,0.00,397,Wunderground v.1.15,2013-09-11 14:10:00,
2013-09-11 09:15:00,77.7,69.5,30.06,WSW,255,6.0,6.0,76,0.00,,,0.00,410,Wunderground v.1.15,2013-09-11 14:15:00,
2013-09-11 09:20:00,78.0,69.8,30.06,WSW,251,6.0,8.0,76,0.00,,,0.00,425,Wunderground v.1.15,2013-09-11 14:20:00,
2013-09-11 09:30:00,78.6,70.4,30.06,West,264,6.0,6.0,76,0.00,,,0.00,455,Wunderground v.1.15,2013-09-11 14:30:00,
2013-09-11 09:35:00,79.0,69.6,30.06,West,261,6.0,13.0,73,0.00,,,0.00,471,Wunderground v.1.15,2013-09-11 14:35:00,
2013-09-11 09:40:00,79.3,69.5,30.05,West,278,7.0,7.0,72,0.00,,,0.00,485,Wunderground v.1.15,2013-09-11 14:40:00,
2013-09-11 09:45:00,79.6,69.8,30.05,West,261,8.0,8.0,72,0.00,,,0.00,499,Wunderground v.1.15,2013-09-11 14:45:00,
2013-09-11 09:50:00,79.8,69.1,30.05,West,261,7.0,7.0,70,0.00,,,0.00,512,Wunderground v.1.15,2013-09-11 14:50:00,
2013-09-11 09:55:00,80.1,69.8,30.06,West,266,7.0,10.0,71,0.00,,,0.00,526,Wunderground v.1.15,2013-09-11 14:55:00,
2013-09-11 10:05:00,80.5,69.8,30.06,West,279,7.0,8.0,70,0.00,,,0.00,550,Wunderground v.1.15,2013-09-11 15:05:00,
2013-09-11 10:10:00,80.9,70.6,30.06,West,265,6.0,6.0,71,0.00,,,0.00,563,Wunderground v.1.15,2013-09-11 15:10:00,
2013-09-11 10:15:00,81.2,69.6,30.06,WNW,287,5.0,6.0,68,0.00,,,0.00,578,Wunderground v.1.15,2013-09-11 15:15:00,
2013-09-11 10:20:00,81.5,69.9,30.06,West,271,5.0,7.0,68,0.00,,,0.00,589,Wunderground v.1.15,2013-09-11 15:20:00,
2013-09-11 10:30:00,82.2,71.4,30.06,West,261,5.0,5.0,70,0.00,,,0.00,612,Wunderground v.1.15,2013-09-11 15:30:00,
2013-09-11 10:40:00,82.7,71.1,30.06,WSW,254,5.0,5.0,68,0.00,,,0.00,635,Wunderground v.1.15,2013-09-11 15:40:00,
2013-09-11 10:45:00,82.9,72.1,30.06,WSW,254,4.0,5.0,70,0.00,,,0.00,649,Wunderground v.1.15,2013-09-11 15:45:00,
2013-09-11 10:50:00,83.2,71.1,30.05,WSW,254,4.0,4.0,67,0.00,,,0.00,656,Wunderground v.1.15,2013-09-11 15:50:00,
2013-09-11 10:55:00,83.6,71.5,30.05,WSW,254,3.0,4.0,67,0.00,,,0.00,666,Wunderground v.1.15,2013-09-11 15:55:00,
2013-09-11 11:00:00,83.9,72.2,30.05,WSW,254,3.0,5.0,68,0.00,,,0.00,677,Wunderground v.1.15,2013-09-11 16:00:00,
2013-09-11 11:05:00,84.3,71.2,30.04,WSW,254,3.0,5.0,65,0.00,,,0.00,687,Wunderground v.1.15,2013-09-11 16:05:00,
2013-09-11 11:10:00,84.6,71.5,30.05,WSW,254,3.0,3.0,65,0.00,,,0.00,696,Wunderground v.1.15,2013-09-11 16:10:00,
2013-09-11 11:15:00,85.0,71.9,30.04,WSW,254,3.0,5.0,65,0.00,,,0.00,705,Wunderground v.1.15,2013-09-11 16:15:00,
2013-09-11 11:20:00,85.2,72.6,30.04,WSW,254,4.0,4.0,66,0.00,,,0.00,714,Wunderground v.1.15,2013-09-11 16:20:00,
2013-09-11 11:25:00,85.2,71.2,30.04,WSW,254,4.0,6.0,63,0.00,,,0.00,721,Wunderground v.1.15,2013-09-11 16:25:00,
2013-09-11 11:30:00,85.3,71.7,30.04,WSW,254,4.0,7.0,64,0.00,,,0.00,728,Wunderground v.1.15,2013-09-11 16:30:00,
2013-09-11 11:35:00,85.4,72.7,30.04,WSW,254,4.0,7.0,66,0.00,,,0.00,735,Wunderground v.1.15,2013-09-11 16:35:00,
2013-09-11 11:45:00,85.7,72.6,30.04,WSW,253,4.0,5.0,65,0.00,,,0.00,751,Wunderground v.1.15,2013-09-11 16:45:00,
2013-09-11 11:50:00,85.9,73.7,30.03,WSW,253,4.0,4.0,67,0.00,,,0.00,758,Wunderground v.1.15,2013-09-11 16:50:00,
2013-09-11 11:55:00,86.2,72.6,30.03,WSW,252,4.0,5.0,64,0.00,,,0.00,763,Wunderground v.1.15,2013-09-11 16:55:00,
2013-09-11 12:00:00,86.6,73.4,30.03,WSW,247,4.0,6.0,65,0.00,,,0.00,768,Wunderground v.1.15,2013-09-11 17:00:00,
2013-09-11 12:05:00,86.8,72.2,30.03,WSW,237,5.0,6.0,62,0.00,,,0.00,775,Wunderground v.1.15,2013-09-11 17:05:00,
2013-09-11 12:15:00,87.2,73.5,30.03,SW,235,6.0,6.0,64,0.00,,,0.00,782,Wunderground v.1.15,2013-09-11 17:15:00,
2013-09-11 12:25:00,87.7,72.6,30.03,SW,223,5.0,5.0,61,0.00,,,0.00,786,Wunderground v.1.15,2013-09-11 17:25:00,
2013-09-11 12:30:00,87.9,72.8,30.03,WSW,237,5.0,5.0,61,0.00,,,0.00,788,Wunderground v.1.15,2013-09-11 17:30:00,
2013-09-11 12:35:00,88.0,71.4,30.03,West,261,5.0,10.0,58,0.00,,,0.00,791,Wunderground v.1.15,2013-09-11 17:35:00,
2013-09-11 12:40:00,88.3,72.2,30.02,SW,234,7.0,7.0,59,0.00,,,0.00,791,Wunderground v.1.15,2013-09-11 17:40:00,
2013-09-11 12:45:00,88.4,71.2,30.02,West,265,8.0,8.0,57,0.00,,,0.00,789,Wunderground v.1.15,2013-09-11 17:45:00,
2013-09-11 12:50:00,88.8,72.6,30.02,WSW,239,6.0,9.0,59,0.00,,,0.00,796,Wunderground v.1.15,2013-09-11 17:50:00,
2013-09-11 12:55:00,89.0,69.1,30.02,WSW,257,7.0,9.0,52,0.00,,,0.00,795,Wunderground v.1.15,2013-09-11 17:55:00,
2013-09-11 13:00:00,89.3,71.5,30.02,SW,232,8.0,9.0,56,0.00,,,0.00,793,Wunderground v.1.15,2013-09-11 18:00:00,
2013-09-11 13:10:00,89.7,71.4,30.02,WSW,256,8.0,8.0,55,0.00,,,0.00,791,Wunderground v.1.15,2013-09-11 18:10:00,
2013-09-11 13:15:00,89.9,70.5,30.02,WSW,250,7.0,10.0,53,0.00,,,0.00,789,Wunderground v.1.15,2013-09-11 18:15:00,
2013-09-11 13:25:00,90.2,69.6,30.02,WNW,290,10.0,10.0,51,0.00,,,0.00,786,Wunderground v.1.15,2013-09-11 18:25:00,
2013-09-11 13:30:00,90.5,70.5,30.02,West,277,10.0,10.0,52,0.00,,,0.00,784,Wunderground v.1.15,2013-09-11 18:30:00,
2013-09-11 13:35:00,90.8,71.3,30.01,WNW,283,8.0,10.0,53,0.00,,,0.00,780,Wunderground v.1.15,2013-09-11 18:35:00,
2013-09-11 13:40:00,91.0,71.5,30.01,WSW,256,8.0,8.0,53,0.00,,,0.00,779,Wunderground v.1.15,2013-09-11 18:40:00,
2013-09-11 13:45:00,91.3,71.8,30.01,West,271,7.0,11.0,53,0.00,,,0.00,779,Wunderground v.1.15,2013-09-11 18:45:00,
2013-09-11 13:50:00,91.4,71.3,30.01,West,271,8.0,10.0,52,0.00,,,0.00,780,Wunderground v.1.15,2013-09-11 18:50:00,
2013-09-11 13:55:00,91.5,70.2,30.01,West,269,9.0,10.0,50,0.00,,,0.00,779,Wunderground v.1.15,2013-09-11 18:55:00,
2013-09-11 14:00:00,91.5,69.6,30.00,West,264,9.0,9.0,49,0.00,,,0.00,772,Wunderground v.1.15,2013-09-11 19:00:00,
2013-09-11 14:10:00,91.7,69.2,30.00,WNW,296,8.0,8.0,48,0.00,,,0.00,773,Wunderground v.1.15,2013-09-11 19:10:00,
2013-09-11 14:15:00,91.8,70.5,30.00,WSW,250,9.0,11.0,50,0.00,,,0.00,777,Wunderground v.1.15,2013-09-11 19:15:00,
2013-09-11 14:20:00,91.7,69.2,30.00,WSW,255,9.0,12.0,48,0.00,,,0.00,777,Wunderground v.1.15,2013-09-11 19:20:00,
2013-09-11 14:30:00,91.7,69.2,30.00,WSW,247,9.0,9.0,48,0.00,,,0.00,798,Wunderground v.1.15,2013-09-11 19:30:00,
2013-09-11 14:35:00,91.8,69.9,30.00,WSW,251,9.0,11.0,49,0.00,,,0.00,793,Wunderground v.1.15,2013-09-11 19:35:00,
2013-09-11 14:40:00,91.9,71.2,29.99,WSW,257,8.0,8.0,51,0.00,,,0.00,853,Wunderground v.1.15,2013-09-11 19:40:00,
2013-09-11 14:45:00,92.2,69.7,30.00,WSW,257,7.0,8.0,48,0.00,,,0.00,870,Wunderground v.1.15,2013-09-11 19:45:00,
2013-09-11 14:50:00,92.4,71.6,30.00,West,277,7.0,12.0,51,0.00,,,0.00,879,Wunderground v.1.15,2013-09-11 19:50:00,
2013-09-11 14:55:00,92.4,69.9,30.00,West,281,8.0,12.0,48,0.00,,,0.00,877,Wunderground v.1.15,2013-09-11 19:55:00,
2013-09-11 15:00:00,91.9,70.0,29.99,West,269,9.0,9.0,49,0.00,,,0.00,357,Wunderground v.1.15,2013-09-11 20:00:00,
2013-09-11 15:10:00,91.0,70.4,29.99,West,259,8.0,8.0,51,0.00,,,0.00,420,Wunderground v.1.15,2013-09-11 20:10:00,
2013-09-11 15:15:00,91.1,69.3,29.99,West,263,8.0,8.0,49,0.00,,,0.00,417,Wunderground v.1.15,2013-09-11 20:15:00,
2013-09-11 15:20:00,91.0,70.4,29.99,West,264,8.0,8.0,51,0.00,,,0.00,362,Wunderground v.1.15,2013-09-11 20:20:00,
2013-09-11 15:25:00,90.8,71.3,29.99,West,273,6.0,8.0,53,0.00,,,0.00,464,Wunderground v.1.15,2013-09-11 20:25:00,
2013-09-11 15:35:00,90.4,72.0,29.99,WNW,284,5.0,6.0,55,0.00,,,0.00,323,Wunderground v.1.15,2013-09-11 20:35:00,
2013-09-11 15:40:00,90.2,71.3,29.99,WNW,284,4.0,4.0,54,0.00,,,0.00,316,Wunderground v.1.15,2013-09-11 20:40:00,
2013-09-11 15:45:00,90.2,70.8,29.99,West,272,5.0,5.0,53,0.00,,,0.00,334,Wunderground v.1.15,2013-09-11 20:45:00,
2013-09-11 15:50:00,90.2,72.4,29.99,West,273,4.0,4.0,56,0.00,,,0.00,336,Wunderground v.1.15,2013-09-11 20:50:00,
2013-09-11 15:55:00,90.3,74.0,29.99,WNW,288,3.0,4.0,59,0.00,,,0.00,369,Wunderground v.1.15,2013-09-11 20:55:00,
2013-09-11 16:05:00,89.3,73.1,29.99,North,5,3.0,4.0,59,0.00,,,0.00,582,Wunderground v.1.15,2013-09-11 21:05:00,
2013-09-11 16:15:00,88.2,72.6,29.99,NE,40,3.0,8.0,60,0.00,,,0.00,656,Wunderground v.1.15,2013-09-11 21:15:00,
2013-09-11 16:20:00,88.2,73.0,29.99,NNW,346,3.0,3.0,61,0.00,,,0.00,594,Wunderground v.1.15,2013-09-11 21:20:00,
2013-09-11 16:25:00,88.3,72.7,29.98,North,9,3.0,3.0,60,0.00,,,0.00,527,Wunderground v.1.15,2013-09-11 21:25:00,
2013-09-11 16:30:00,88.5,72.8,29.98,North,9,3.0,3.0,60,0.00,,,0.00,487,Wunderground v.1.15,2013-09-11 21:30:00,
2013-09-11 16:40:00,88.7,73.0,29.98,North,360,1.0,1.0,60,0.00,,,0.00,148,Wunderground v.1.15,2013-09-11 21:40:00,
2013-09-11 16:45:00,88.7,73.5,29.98,North,5,1.0,3.0,61,0.00,,,0.00,452,Wunderground v.1.15,2013-09-11 21:45:00,
2013-09-11 16:50:00,88.7,73.0,29.98,North,350,1.0,4.0,60,0.00,,,0.00,381,Wunderground v.1.15,2013-09-11 21:50:00,
2013-09-11 16:55:00,88.6,72.9,29.98,North,355,1.0,4.0,60,0.00,,,0.00,174,Wunderground v.1.15,2013-09-11 21:55:00,
2013-09-11 17:00:00,88.6,73.9,29.98,North,360,1.0,6.0,62,0.00,,,0.00,218,Wunderground v.1.15,2013-09-11 22:00:00,
2013-09-11 17:10:00,88.6,73.4,29.98,North,5,2.0,2.0,61,0.00,,,0.00,309,Wunderground v.1.15,2013-09-11 22:10:00,
2013-09-11 17:15:00,88.5,72.8,29.98,North,11,2.0,3.0,60,0.00,,,0.00,220,Wunderground v.1.15,2013-09-11 22:15:00,
2013-09-11 17:20:00,88.2,72.1,29.98,NE,39,2.0,2.0,59,0.00,,,0.00,276,Wunderground v.1.15,2013-09-11 22:20:00,
2013-09-11 17:25:00,88.0,72.9,29.98,NNE,30,2.0,2.0,61,0.00,,,0.00,174,Wunderground v.1.15,2013-09-11 22:25:00,
2013-09-11 17:30:00,87.7,72.6,29.98,NW,320,2.0,7.0,61,0.00,,,0.00,149,Wunderground v.1.15,2013-09-11 22:30:00,
2013-09-11 17:35:00,87.1,71.0,29.98,North,355,3.0,7.0,59,0.00,,,0.00,134,Wunderground v.1.15,2013-09-11 22:35:00,
2013-09-11 17:40:00,86.5,71.0,29.98,North,355,3.0,3.0,60,0.00,,,0.00,241,Wunderground v.1.15,2013-09-11 22:40:00,
2013-09-11 17:45:00,86.1,71.1,29.98,NNW,348,3.0,3.0,61,0.00,,,0.00,216,Wunderground v.1.15,2013-09-11 22:45:00,
2013-09-11 17:50:00,85.7,71.2,29.98,North,351,3.0,3.0,62,0.00,,,0.00,167,Wunderground v.1.15,2013-09-11 22:50:00,
2013-09-11 17:55:00,85.4,70.9,29.98,North,9,4.0,4.0,62,0.00,,,0.00,225,Wunderground v.1.15,2013-09-11 22:55:00,
2013-09-11 18:00:00,85.0,71.5,29.99,NW,317,3.0,3.0,64,0.00,,,0.00,111,Wunderground v.1.15,2013-09-11 23:00:00,
2013-09-11 18:10:00,84.0,70.5,29.99,NNW,345,2.0,2.0,64,0.00,,,0.00,62,Wunderground v.1.15,2013-09-11 23:10:00,
2013-09-11 18:20:00,83.1,71.0,29.99,NNW,346,1.0,1.0,67,0.00,,,0.00,32,Wunderground v.1.15,2013-09-11 23:20:00,
2013-09-11 18:25:00,82.8,70.7,29.99,NNW,347,1.0,1.0,67,0.00,,,0.00,23,Wunderground v.1.15,2013-09-11 23:25:00,
2013-09-11 18:30:00,82.4,70.8,29.98,NNW,347,1.0,1.0,68,0.00,,,0.00,42,Wunderground v.1.15,2013-09-11 23:30:00,
2013-09-11 18:35:00,82.2,71.0,29.98,NNW,347,0.0,1.0,69,0.00,,,0.00,35,Wunderground v.1.15,2013-09-11 23:35:00,
2013-09-11 18:40:00,82.0,71.2,29.98,NNW,347,0.0,0.0,70,0.00,,,0.00,33,Wunderground v.1.15,2013-09-11 23:40:00,
2013-09-11 18:45:00,81.7,71.0,29.99,NNW,347,0.0,0.0,70,0.00,,,0.00,25,Wunderground v.1.15,2013-09-11 23:45:00,
2013-09-11 18:50:00,81.4,70.7,29.99,NNW,347,0.0,0.0,70,0.00,,,0.00,19,Wunderground v.1.15,2013-09-11 23:50:00,
2013-09-11 18:55:00,81.1,70.8,29.99,NNW,347,0.0,0.0,71,0.00,,,0.00,19,Wunderground v.1.15,2013-09-11 23:55:00,
2013-09-11 19:00:00,80.8,70.5,29.99,NNW,346,0.0,2.0,71,0.00,,,0.00,12,Wunderground v.1.15,2013-09-12 00:00:00,
2013-09-11 19:10:00,79.6,69.8,29.99,NNW,342,1.0,1.0,72,0.00,,,0.00,5,Wunderground v.1.15,2013-09-12 00:10:00,
2013-09-11 19:15:00,79.1,69.7,29.99,NNW,342,1.0,2.0,73,0.00,,,0.00,0,Wunderground v.1.15,2013-09-12 00:15:00,
2013-09-11 19:25:00,78.4,69.4,29.99,NNW,342,0.0,1.0,74,0.00,,,0.00,0,Wunderground v.1.15,2013-09-12 00:25:00,
2013-09-11 19:30:00,78.2,69.6,29.99,NNW,342,0.0,0.0,75,0.00,,,0.00,0,Wunderground v.1.15,2013-09-12 00:30:00,
2013-09-11 19:35:00,78.0,69.8,29.99,NNW,342,0.0,0.0,76,0.00,,,0.00,0,Wunderground v.1.15,2013-09-12 00:35:00,
2013-09-11 19:40:00,77.8,69.6,29.99,NNW,342,0.0,0.0,76,0.00,,,0.00,0,Wunderground v.1.15,2013-09-12 00:40:00,
2013-09-11 19:45:00,77.5,69.7,29.99,NNW,342,0.0,1.0,77,0.00,,,0.00,0,Wunderground v.1.15,2013-09-12 00:45:00,
2013-09-11 19:50:00,77.3,69.5,29.99,NNW,342,0.0,0.0,77,0.00,,,0.00,0,Wunderground v.1.15,2013-09-12 00:50:00,
2013-09-11 19:55:00,77.1,69.7,29.99,NNW,342,0.0,0.0,78,0.00,,,0.00,0,Wunderground v.1.15,2013-09-12 00:55:00,
2013-09-11 20:00:00,76.9,69.9,29.99,NNW,342,0.0,0.0,79,0.00,,,0.00,0,Wunderground v.1.15,2013-09-12 01:00:00,
2013-09-11 20:10:00,76.6,69.6,29.99,NNW,342,0.0,0.0,79,0.00,,,0.00,0,Wunderground v.1.15,2013-09-12 01:10:00,
2013-09-11 20:15:00,76.4,69.8,29.99,NNW,342,0.0,0.0,80,0.00,,,0.00,0,Wunderground v.1.15,2013-09-12 01:15:00,
2013-09-11 20:20:00,76.2,69.6,30.00,NNW,342,0.0,0.0,80,0.00,,,0.00,0,Wunderground v.1.15,2013-09-12 01:20:00,
2013-09-11 20:30:00,75.8,69.6,30.00,NNW,342,0.0,0.0,81,0.00,,,0.00,0,Wunderground v.1.15,2013-09-12 01:30:00,
2013-09-11 20:35:00,75.7,69.5,30.00,NNW,342,0.0,0.0,81,0.00,,,0.00,0,Wunderground v.1.15,2013-09-12 01:35:00,
2013-09-11 20:40:00,75.5,69.3,30.00,NNW,342,0.0,0.0,81,0.00,,,0.00,0,Wunderground v.1.15,2013-09-12 01:40:00,
2013-09-11 20:45:00,75.4,69.5,30.00,NNW,342,0.0,0.0,82,0.00,,,0.00,0,Wunderground v.1.15,2013-09-12 01:45:00,
2013-09-11 20:50:00,75.3,69.8,30.01,NNW,342,0.0,0.0,83,0.00,,,0.00,0,Wunderground v.1.15,2013-09-12 01:50:00,
2013-09-11 21:00:00,75.1,69.6,30.01,NNW,342,0.0,0.0,83,0.00,,,0.00,0,Wunderground v.1.15,2013-09-12 02:00:00,
2013-09-11 21:05:00,75.0,69.5,30.01,NNW,342,0.0,0.0,83,0.00,,,0.00,0,Wunderground v.1.15,2013-09-12 02:05:00,
2013-09-11 21:10:00,74.9,69.7,30.00,NNW,342,0.0,0.0,84,0.00,,,0.00,0,Wunderground v.1.15,2013-09-12 02:10:00,
2013-09-11 21:15:00,74.9,70.4,30.00,NNW,342,0.0,0.0,86,0.00,,,0.00,0,Wunderground v.1.15,2013-09-12 02:15:00,
2013-09-11 21:20:00,74.8,70.7,30.00,NNW,342,0.0,0.0,87,0.00,,,0.00,0,Wunderground v.1.15,2013-09-12 02:20:00,
2013-09-11 21:25:00,74.6,70.5,30.00,NNW,342,0.0,0.0,87,0.00,,,0.00,0,Wunderground v.1.15,2013-09-12 02:25:00,
2013-09-11 21:35:00,74.3,70.2,30.00,NNW,342,0.0,0.0,87,0.00,,,0.00,0,Wunderground v.1.15,2013-09-12 02:35:00,
2013-09-11 21:40:00,74.3,70.5,30.00,NNW,342,0.0,0.0,88,0.00,,,0.00,0,Wunderground v.1.15,2013-09-12 02:40:00,
2013-09-11 21:45:00,74.1,70.3,30.00,NNW,342,0.0,0.0,88,0.00,,,0.00,0,Wunderground v.1.15,2013-09-12 02:45:00,
2013-09-11 21:50:00,74.0,70.2,30.01,NNW,342,0.0,0.0,88,0.00,,,0.00,0,Wunderground v.1.15,2013-09-12 02:50:00,
2013-09-11 21:55:00,73.9,70.5,30.01,NNW,342,1.0,3.0,89,0.00,,,0.00,0,Wunderground v.1.15,2013-09-12 02:55:00,
2013-09-11 22:05:00,73.5,70.4,30.01,NNW,342,2.0,2.0,90,0.00,,,0.00,0,Wunderground v.1.15,2013-09-12 03:05:00,
2013-09-11 22:10:00,73.5,70.4,30.01,NNW,342,1.0,1.0,90,0.00,,,0.00,0,Wunderground v.1.15,2013-09-12 03:10:00,
2013-09-11 22:15:00,73.5,70.4,30.01,NNW,342,1.0,2.0,90,0.00,,,0.00,0,Wunderground v.1.15,2013-09-12 03:15:00,
2013-09-11 22:20:00,73.4,70.3,30.00,NNW,342,1.0,2.0,90,0.00,,,0.00,0,Wunderground v.1.15,2013-09-12 03:20:00,
2013-09-11 22:25:00,73.3,70.2,30.01,NNW,342,1.0,2.0,90,0.00,,,0.00,0,Wunderground v.1.15,2013-09-12 03:25:00,
2013-09-11 22:30:00,73.3,70.2,30.01,NNW,342,1.0,2.0,90,0.00,,,0.00,0,Wunderground v.1.15,2013-09-12 03:30:00,
2013-09-11 22:40:00,73.2,70.4,30.01,NNW,342,1.0,1.0,91,0.00,,,0.00,0,Wunderground v.1.15,2013-09-12 03:40:00,
2013-09-11 22:45:00,73.1,70.3,30.01,NNW,342,0.0,1.0,91,0.00,,,0.00,0,Wunderground v.1.15,2013-09-12 03:45:00,
2013-09-11 22:50:00,73.0,70.2,30.00,NNW,342,0.0,1.0,91,0.00,,,0.00,0,Wunderground v.1.15,2013-09-12 03:50:00,
2013-09-11 22:55:00,72.8,70.0,30.01,NNW,342,1.0,2.0,91,0.00,,,0.00,0,Wunderground v.1.15,2013-09-12 03:55:00,
2013-09-11 23:00:00,72.6,69.8,30.01,NNW,342,2.0,4.0,91,0.00,,,0.00,0,Wunderground v.1.15,2013-09-12 04:00:00,
2013-09-11 23:05:00,72.5,69.7,30.01,NNW,342,3.0,4.0,91,0.00,,,0.00,0,Wunderground v.1.15,2013-09-12 04:05:00,
2013-09-11 23:10:00,72.4,69.6,30.01,NNW,342,3.0,3.0,91,0.00,,,0.00,0,Wunderground v.1.15,2013-09-12 04:10:00,
2013-09-11 23:15:00,72.4,69.6,30.01,NNW,342,2.0,3.0,91,0.00,,,0.00,0,Wunderground v.1.15,2013-09-12 04:15:00,
2013-09-11 23:20:00,72.4,69.6,30.01,NNW,342,3.0,5.0,91,0.00,,,0.00,0,Wunderground v.1.15,2013-09-12 04:20:00,
2013-09-11 23:25:00,72.4,69.6,30.00,NNW,342,3.0,5.0,91,0.00,,,0.00,0,Wunderground v.1.15,2013-09-12 04:25:00,
2013-09-11 23:30:00,72.3,69.5,30.00,NNW,342,4.0,5.0,91,0.00,,,0.00,0,Wunderground v.1.15,2013-09-12 04:30:00,
2013-09-11 23:35:00,72.3,69.5,30.00,NNW,342,4.0,5.0,91,0.00,,,0.00,0,Wunderground v.1.15,2013-09-12 04:35:00,
2013-09-11 23:40:00,72.2,69.4,30.00,NNW,342,3.0,3.0,91,0.00,,,0.00,0,Wunderground v.1.15,2013-09-12 04:40:00,
2013-09-11 23:45:00,72.1,69.6,30.00,NNW,342,3.0,4.0,92,0.00,,,0.00,0,Wunderground v.1.15,2013-09-12 04:45:00,
2013-09-11 23:50:00,72.0,69.5,30.00,NNW,342,3.0,3.0,92,0.00,,,0.00,0,Wunderground v.1.15,2013-09-12 04:50:00,
2013-09-11 23:55:00,72.1,69.6,29.99,NNW,331,4.0,4.0,92,0.00,,,0.00,0,Wunderground v.1.15,2013-09-12 04:55:00,